Location: Biberach+an+der+Riss
(48.0937°N, 9.7888°E)
Time: 04:05:24
(UTC+02:00)

ISS - Pass Details

Date: 03 October 2020
Orbit: 418 x 420 km, 51.6° (Epoch: 20 October)

Event Time Altitude Azimuth Distance (km) Brightness Sun altitude
Rises 19:30:39 0° 292° (WNW) 2,369 1.6 -6.7°
Maximum altitude 19:36:08 77° 21° (NNE) 435 -3.7 -7.7°
Enters shadow 19:39:26 10° 107° (ESE) 1,473 -1.6 -8.2°
